SCP
0 0 -0 0 0 0 0 0 0 0 0 -0 0 -0 -0 1 1 0 0 1 2 -0 0 1 1 2 2 1 1 1 1 0 0 0 0 0 0 0 0 -0 0 0 0 0
0 0 0 0 0 0 -0 0 0 0 0 0 0 0 0 1 0 0 0 0 2 2 0 1 1 1 2 1 1 0 0 0 0 0 0 0 0 0 0 0 0 -0 -0 0
0 0 0 0 0 -0 -0 -0 0 0 0 0 0 0 0 0 1 1 0 -0 -1 -0 1 2 1 1 1 1 0 0 0 0 0 0 0 0 0 0 0 0 0 0 -0 0
0 0 0 0 0 0 0 0 0 0 0 1 0 0 0 0 1 1 3 1 2 2 1 1 2 1 1 0 0 0 0 0 0 0 0 0 0 0 0 0 0 0 0 0
0 0 0 0 0 0 0 0 0 0 0 0 0 0 0 0 0 0 0 0 0 2 2 2 2 2 1 1 1 0 0 0 0 0 0 0 0 0 0 0 0 0 0 0
0 0 0 0 0 0 0 1 1 1 1 2 1 1 1 1 0 0 0 1 3 2 3 2 2 1 1 1 1 1 0 0 0 0 0 0 0 0 0 0 0 0 0 0
0 0 0 0 0 0 0 0 0 0 0 0 0 0 0 0 0 0 0 5 5 2 2 2 1 1 1 0 0 0 0 0 0 0 0 0 0 0 0 0 0 0 0 0
0 0 0 0 -0 0 0 0 0 0 0 0 0 0 0 0 0 1 0 0 1 1 1 2 2 1 0 0 0 0 0 0 0 0 0 0 0 0 0 0 0 0 0 0
0 0 0 0 0 0 0 0 0 0 0 0 -0 -0 0 -0 0 0 0 0 -0 0 1 1 1 1 0 0 0 0 0 0 0 0 0 0 0 0 0 0 0 0 0 0
0 0 0 0 0 0 0 0 0 0 0 0 0 -0 -0 0 -0 -0 -0 -0 0 0 0 1 1 0 0 0 0 0 0 0 0 0 0 0 0 0 0 0 0 0 0 0
0 0 0 0 0 0 0 0 0 0 0 0 -0 -0 -0 -0 -0 -0 -0 -0 0 0 0 0 0 0 0 0 0 0 0 0 0 -0 0 0 0 0 0 0 0 0 0 0
0 0 0 0 0 0 0 0 0 0 0 0 -0 -0 -0 -0 -0 -0 -0 -0 0 0 0 0 0 0 0 0 0 0 0 0 0 0 0 0 0 0 0 0 0 0 0 0
0 0 0 0 0 0 0 0 0 0 0 0 -0 -0 0 -0 0 0 0 0 0 0 0 0 0 0 0 0 0 0 0 0 0 0 0 0 0 0 0 0 0 0 0 0
0 0 0 0 0 0 0 0 0 0 0 0 0 0 0 0 0 0 -0 0 0 0 0 0 0 0 0 0 0 0 0 0 0 0 0 0 0 0 0 0 0 0 -0 -0
0 0 0 0 0 0 0 0 0 0 0 0 0 0 0 0 0 0 0 -0 -0 -0 -0 0 -0 0 0 0 0 0 0 0 0 0 0 0 0 0 0 0 0 0 0 0
0 0 0 0 0 0 0 0 0 0 0 0 0 0 0 0 0 0 -0 -0 -0 -0 -0 0 0 0 0 0 0 0 0 0 0 0 0 0 0 0 0 0 0 0 0 0
0 0 0 0 0 0 0 0 0 -0 -0 0 0 0 0 0 0 0 -0 -0 0 -0 -0 0 0 0 0 0 0 0 0 0 0 0 0 0 0 0 0 0 0 0 0 0
0 0 0 0 0 0 0 0 0 0 0 0 0 0 0 0 0 0 0 0 0 0 0 0 0 0 0 0 0 0 0 0 0 0 0 0 0 0 0 0 0 0 0 0
0 0 0 0 0 0 0 0 0 0 0 0 0 -0 0 0 0 0 0 0 0 0 0 0 0 0 0 0 0 0 0 0 0 0 0 0 0 0 0 0 0 0 0 0
0 0 0 0 0 0 0 0 0 0 0 0 0 0 0 0 0 0 0 0 0 0 0 0 0 0 0 -0 -0 0 0 0 0 0 0 0 0 0 0 0 0 0 0 0
0 0 0 0 0 0 0 0 0 0 0 0 0 0 0 0 0 0 0 0 -0 -0 -0 -0 0 0 0 0 0 0 0 0 0 0 0 0 0 0 0 0 0 0 0 0
0 0 0 0 0 0 0 0 0 0 0 0 0 -0 0 0 0 0 -0 0 0 -0 0 0 0 0 0 0 0 0 0 0 0 0 0 0 0 0 0 0 0 0 0 0
0 0 0 0 0 0 0 0 0 0 0 0 0 -0 0 0 0 -0 -0 -0 0 0 0 0 0 -0 0 0 0 0 0 0 0 0 0 0 0 0 0 0 0 0 0 0
0 0 0 0 0 0 0 0 0 0 0 0 0 0 0 -0 -0 0 -0 -0 -0 -0 0 0 0 -0 0 0 -0 0 0 0 0 0 0 0 0 0 0 0 0 0 0 0
0 0 0 0 0 0 0 0 0 0 0 0 0 0 -0 -0 0 -0 -0 -0 -0 -0 0 -0 -0 -0 0 0 0 0 0 0 0 0 0 0 0 0 0 0 0 0 0 0
-0 0 0 0 0 0 -0 0 0 0 0 0 -0 0 -0 0 -0 -0 -0 -0 -0 -0 0 0 0 0 0 0 0 0 0 0 0 0 0 0 0 0 0 0 0 0 0 0
0 0 0 -0 -0 -0 -0 0 0 0 0 0 0 0 0 -0 -0 -0 -0 -0 -0 -0 0 0 0 0 0 0 0 0 0 0 0 0 0 0 0 0 0 0 0 0 0 0
Wind_Speed_500mb
18 22 33 23 27 20 11 13 13 10 8 9 11 21 30 49 57 57 43 38 43 38 26 17 8 17 29 43 52 61 66 65 54 27 14 4 13 17 20 20 5 28 28 34
14 20 27 36 23 22 19 16 8 7 6 4 19 34 37 30 25 19 12 11 19 44 38 10 7 16 18 29 41 44 46 44 39 27 16 21 14 12 4 22 22 23 23 27
6 15 18 12 16 10 19 11 5 2 3 3 6 15 22 10 11 19 36 40 33 62 35 7 12 15 17 24 30 30 29 26 22 16 12 8 8 8 0 7 16 8 5 7
6 12 14 14 5 8 7 5 6 10 12 13 14 8 9 13 16 40 51 52 49 40 31 38 27 26 21 22 25 25 26 21 10 6 7 12 8 11 6 6 7 11 14 16
6 15 14 16 11 12 10 19 31 16 8 4 24 12 33 28 31 33 46 52 26 34 34 36 33 36 29 23 24 27 23 17 16 15 17 15 13 12 13 12 8 8 8 5
7 9 13 6 19 35 21 10 36 55 42 31 30 12 14 80 45 39 41 54 40 42 36 38 41 39 35 43 39 36 28 26 23 16 12 15 13 11 11 9 5 4 2 3
8 1 6 12 25 24 5 6 38 46 24 22 4 6 49 58 54 29 26 41 50 49 45 54 54 50 50 48 43 33 24 27 23 18 15 15 13 11 11 10 7 9 12 11
6 10 11 34 19 11 5 15 23 38 31 36 53 57 70 60 26 33 46 57 29 28 42 53 53 65 59 49 40 28 25 34 30 24 19 11 9 10 15 20 19 17 16 13
5 7 27 48 37 29 33 32 39 44 41 40 50 54 52 39 14 28 24 71 53 132 57 51 64 61 58 49 38 41 35 29 23 17 8 14 24 23 20 17 14 12 9 9
8 13 15 39 38 39 41 47 32 32 43 44 44 40 41 49 49 46 38 24 70 82 73 67 62 49 46 48 41 35 35 31 26 24 23 23 22 14 11 8 5 6 3 9
5 15 14 36 36 34 39 39 38 42 48 38 41 36 31 46 45 32 35 31 21 74 66 58 53 51 46 42 36 33 32 38 33 27 31 26 16 12 18 19 23 26 17 8
5 25 17 29 45 43 49 52 56 43 44 32 40 35 30 31 39 54 39 37 41 53 76 66 56 45 49 41 36 39 36 32 31 24 26 21 16 13 16 17 18 13 7 12
19 30 27 28 27 36 45 51 57 40 32 31 40 30 12 27 13 25 36 71 36 30 43 38 43 40 35 35 38 31 35 30 33 21 11 14 17 15 12 13 11 9 3 4
22 28 32 34 44 42 42 47 49 44 22 19 22 18 4 14 16 26 39 12 46 36 38 35 27 28 32 33 28 26 22 20 24 14 9 6 9 5 6 11 15 16 18 19
19 19 23 31 38 45 47 46 51 51 32 30 40 42 23 15 17 18 32 33 42 24 29 27 32 28 19 24 24 30 22 18 10 6 4 2 6 11 10 10 13 15 21 19
20 24 27 32 39 36 38 44 48 49 37 46 38 18 21 11 5 10 19 28 40 41 35 29 24 26 17 21 29 28 20 12 1 5 7 3 8 14 9 13 20 23 27 18
20 20 26 32 36 32 37 40 49 48 38 2 27 19 11 12 15 21 28 27 31 29 21 14 20 16 13 19 23 16 8 14 11 13 15 14 21 22 22 24 25 26 34 27
22 28 26 22 29 40 40 42 47 54 37 24 17 7 19 20 34 35 27 27 23 24 18 12 11 13 20 21 15 11 15 13 21 11 7 17 23 24 18 19 25 30 27 28
25 26 28 26 26 29 30 37 40 39 30 6 13 17 21 23 27 28 27 25 22 22 18 13 11 13 14 11 2 7 8 14 16 12 15 12 16 15 18 21 27 29 24 22
25 25 33 20 24 23 31 32 39 30 16 8 23 32 22 34 30 21 20 21 18 12 6 15 12 14 18 13 5 8 11 6 15 15 12 21 21 15 17 20 16 18 17 14
23 26 33 24 20 20 24 30 34 19 8 25 25 30 31 29 24 21 13 20 14 11 6 5 7 5 9 14 5 6 10 5 9 13 10 17 17 13 15 13 13 16 13 18
26 29 25 27 29 29 25 29 26 10 4 27 29 22 31 23 14 12 24 19 13 8 8 7 13 11 16 11 13 11 8 13 9 10 10 12 15 16 18 17 16 18 23 16
28 25 29 32 29 27 21 26 24 9 18 26 27 32 29 23 21 26 28 20 20 7 3 5 11 13 14 17 6 3 3 12 12 11 13 12 16 21 22 14 18 18 28 25
27 26 24 19 17 16 13 19 14 8 23 26 34 27 30 23 28 23 19 17 12 9 16 6 1 4 10 5 11 13 18 17 18 19 17 23 27 29 30 26 28 28 28 37
22 14 11 12 14 12 11 10 4 22 39 37 26 24 19 13 27 24 14 12 3 10 11 10 7 2 6 6 12 17 26 23 26 28 22 25 23 26 30 28 24 24 27 34
24 21 21 15 14 11 16 21 32 42 41 38 26 13 16 25 18 17 11 4 4 3 6 12 10 11 14 13 16 9 15 24 26 25 20 26 25 30 27 27 27 31 45 35
15 15 12 21 31 25 25 45 50 37 25 24 18 15 22 18 13 6 7 9 4 7 5 6 16 20 10 9 18 21 26 26 18 33 33 32 39 37 24 29 39 43 34 36
Wind_Direction_500mb
289 294 298 293 297 309 271 220 143 294 33 4 30 61 43 44 29 41 59 53 18 357 4 50 89 116 128 137 156 175 185 191 196 194 116 73 321 352 331 38 236 297 254 240
262 267 277 290 302 311 347 357 33 54 327 190 20 82 52 39 68 50 128 194 353 315 281 22 348 240 175 158 162 163 173 190 212 222 228 286 231 322 151 187 257 263 268 285
272 328 339 350 337 30 115 96 99 161 201 85 28 66 91 37 13 145 158 146 181 253 266 266 282 235 222 179 176 176 180 192 202 224 244 175 99 106 147 236 254 309 32 210
256 336 300 256 122 65 7 77 229 206 155 136 154 181 215 203 174 160 161 181 205 234 277 279 240 231 194 164 157 158 157 160 189 244 222 192 150 142 170 178 158 153 151 175
222 251 264 289 27 27 44 41 21 49 58 140 189 249 271 253 241 226 223 211 220 220 247 235 217 222 208 160 149 149 146 153 157 146 146 153 146 139 136 136 140 146 190 230
242 237 241 33 355 352 331 54 9 39 23 350 355 351 322 325 275 237 229 222 240 237 212 188 195 193 162 145 149 144 144 142 145 146 156 155 150 148 142 139 132 72 90 359
214 168 78 346 18 3 64 307 344 8 45 23 28 345 344 346 301 283 291 250 234 234 196 184 184 170 156 150 142 141 151 151 141 133 128 117 123 110 98 96 89 74 63 55
28 47 283 4 39 63 268 323 342 358 354 3 348 354 352 357 318 280 320 314 241 224 186 180 175 164 149 143 135 131 142 137 130 119 114 112 95 79 71 61 61 56 55 57
47 169 80 66 70 36 8 349 338 337 342 341 343 350 347 359 347 322 284 288 301 321 189 186 162 155 148 141 142 139 136 134 132 138 123 101 88 85 85 78 71 58 49 17
75 32 74 68 44 19 352 330 337 347 336 328 334 346 348 342 341 332 329 289 277 263 168 160 156 155 148 140 138 138 136 130 118 113 107 110 104 81 62 67 358 308 282 34
123 35 44 26 21 2 345 345 346 339 325 325 339 349 11 7 8 7 330 282 288 166 159 151 150 141 136 134 144 139 121 117 107 90 110 114 94 64 59 56 46 51 66 61
74 40 41 356 347 350 351 339 333 329 326 324 339 354 27 25 43 23 3 304 183 157 148 144 148 142 146 141 120 111 122 118 117 102 123 106 101 76 54 32 25 29 68 72
35 14 359 349 354 344 338 335 338 352 347 345 360 7 46 27 11 2 44 53 129 156 142 141 142 140 128 120 129 122 127 113 126 122 120 89 105 110 74 11 340 305 323 37
19 2 348 339 334 338 343 342 342 349 358 29 23 32 322 342 1 48 77 61 101 120 129 131 123 110 115 124 135 125 119 131 116 116 114 85 124 78 125 24 14 15 3 354
8 349 343 344 347 344 338 344 351 351 349 335 320 310 294 248 355 88 121 118 122 157 141 126 110 103 98 113 115 121 106 115 116 56 218 129 324 330 321 337 336 308 328 337
357 343 345 346 338 334 344 343 345 356 356 351 324 289 243 190 54 129 126 126 128 123 123 122 114 120 110 115 114 106 104 126 186 347 25 209 282 311 310 310 326 325 329 306
334 338 339 333 338 2 359 348 340 354 355 78 260 247 194 186 168 132 124 118 123 124 127 122 106 103 116 95 123 101 31 330 299 284 294 272 279 294 275 286 280 303 295 299
331 334 329 333 349 354 342 336 329 329 337 315 270 241 231 194 144 129 124 128 124 116 118 117 94 77 114 86 82 61 0 1 354 11 326 293 286 295 281 274 282 282 281 284
321 318 337 327 336 336 342 349 336 330 330 315 133 167 220 151 130 132 137 136 137 139 146 154 157 132 114 112 121 307 309 342 325 335 335 328 315 292 292 289 302 303 292 291
326 326 323 315 333 334 346 344 335 337 307 226 181 168 163 140 139 140 138 134 138 145 102 94 159 187 176 165 210 1 338 331 322 325 332 335 343 336 317 318 335 317 299 316
321 328 335 348 338 327 323 318 322 345 266 177 157 156 157 152 151 141 144 136 168 176 157 184 156 208 214 185 348 270 285 10 6 346 330 331 8 347 360 346 345 354 349 327
321 316 317 318 315 309 308 312 322 333 206 195 158 173 168 164 181 170 157 145 133 165 170 225 211 192 193 227 315 283 307 302 306 333 336 318 321 329 316 311 311 301 318 319
316 313 312 309 298 300 301 291 318 283 191 179 178 185 177 175 145 140 152 164 171 154 157 152 192 224 265 289 237 273 348 4 345 331 324 321 308 308 315 286 275 300 306 300
310 307 307 306 304 302 277 274 318 203 173 166 148 149 155 156 166 169 163 146 181 193 174 195 245 327 325 325 201 251 284 318 337 9 333 298 298 314 300 301 303 292 295 296
343 347 340 319 329 319 281 285 256 167 148 149 141 164 176 124 171 169 173 168 131 144 210 250 226 287 359 315 306 302 299 291 293 303 315 318 309 311 303 292 296 299 300 295
58 63 35 22 56 79 85 114 150 146 142 148 153 169 136 135 151 173 173 148 226 247 240 260 262 294 293 316 327 300 354 316 301 315 295 309 305 293 314 298 282 296 316 280
36 50 34 53 109 111 107 97 110 132 122 123 142 142 169 180 195 198 210 250 241 309 309 306 293 271 347 338 297 285 307 311 291 298 291 295 311 297 298 305 299 304 300 300
Wind_Speed_850mb
18 22 33 23 27 20 11 13 13 10 8 9 11 21 30 49 57 57 43 38 43 38 26 17 8 17 29 43 52 61 66 65 54 27 14 4 13 17 20 20 5 28 28 34
14 20 27 36 23 22 19 16 8 7 6 4 19 34 37 30 25 19 12 11 19 44 38 10 7 16 18 29 41 44 46 44 39 27 16 21 14 12 4 22 22 23 23 27
6 15 18 12 16 10 19 11 5 2 3 3 6 15 22 10 11 19 36 40 33 62 35 7 12 15 17 24 30 30 29 26 22 16 12 8 8 8 0 7 16 8 5 7
6 12 14 14 5 8 7 5 6 10 12 13 14 8 9 13 16 40 51 52 49 40 31 38 27 26 21 22 25 25 26 21 10 6 7 12 8 11 6 6 7 11 14 16
6 15 14 16 11 12 10 19 31 16 8 4 24 12 33 28 31 33 46 52 26 34 34 36 33 36 29 23 24 27 23 17 16 15 17 15 13 12 13 12 8 8 8 5
7 9 13 6 19 35 21 10 36 55 42 31 30 12 14 80 45 39 41 54 40 42 36 38 41 39 35 43 39 36 28 26 23 16 12 15 13 11 11 9 5 4 2 3
8 1 6 12 25 24 5 6 38 46 24 22 4 6 49 58 54 29 26 41 50 49 45 54 54 50 50 48 43 33 24 27 23 18 15 15 13 11 11 10 7 9 12 11
6 10 11 34 19 11 5 15 23 38 31 36 53 57 70 60 26 33 46 57 29 28 42 53 53 65 59 49 40 28 25 34 30 24 19 11 9 10 15 20 19 17 16 13
5 7 27 48 37 29 33 32 39 44 41 40 50 54 52 39 14 28 24 71 53 132 57 51 64 61 58 49 38 41 35 29 23 17 8 14 24 23 20 17 14 12 9 9
8 13 15 39 38 39 41 47 32 32 43 44 44 40 41 49 49 46 38 24 70 82 73 67 62 49 46 48 41 35 35 31 26 24 23 23 22 14 11 8 5 6 3 9
5 15 14 36 36 34 39 39 38 42 48 38 41 36 31 46 45 32 35 31 21 74 66 58 53 51 46 42 36 33 32 38 33 27 31 26 16 12 18 19 23 26 17 8
5 25 17 29 45 43 49 52 56 43 44 32 40 35 30 31 39 54 39 37 41 53 76 66 56 45 49 41 36 39 36 32 31 24 26 21 16 13 16 17 18 13 7 12
19 30 27 28 27 36 45 51 57 40 32 31 40 30 12 27 13 25 36 71 36 30 43 38 43 40 35 35 38 31 35 30 33 21 11 14 17 15 12 13 11 9 3 4
22 28 32 34 44 42 42 47 49 44 22 19 22 18 4 14 16 26 39 12 46 36 38 35 27 28 32 33 28 26 22 20 24 14 9 6 9 5 6 11 15 16 18 19
19 19 23 31 38 45 47 46 51 51 32 30 40 42 23 15 17 18 32 33 42 24 29 27 32 28 19 24 24 30 22 18 10 6 4 2 6 11 10 10 13 15 21 19
20 24 27 32 39 36 38 44 48 49 37 46 38 18 21 11 5 10 19 28 40 41 35 29 24 26 17 21 29 28 20 12 1 5 7 3 8 14 9 13 20 23 27 18
20 20 26 32 36 32 37 40 49 48 38 2 27 19 11 12 15 21 28 27 31 29 21 14 20 16 13 19 23 16 8 14 11 13 15 14 21 22 22 24 25 26 34 27
22 28 26 22 29 40 40 42 47 54 37 24 17 7 19 20 34 35 27 27 23 24 18 12 11 13 20 21 15 11 15 13 21 11 7 17 23 24 18 19 25 30 27 28
25 26 28 26 26 29 30 37 40 39 30 6 13 17 21 23 27 28 27 25 22 22 18 13 11 13 14 11 2 7 8 14 16 12 15 12 16 15 18 21 27 29 24 22
25 25 33 20 24 23 31 32 39 30 16 8 23 32 22 34 30 21 20 21 18 12 6 15 12 14 18 13 5 8 11 6 15 15 12 21 21 15 17 20 16 18 17 14
23 26 33 24 20 20 24 30 34 19 8 25 25 30 31 29 24 21 13 20 14 11 6 5 7 5 9 14 5 6 10 5 9 13 10 17 17 13 15 13 13 16 13 18
26 29 25 27 29 29 25 29 26 10 4 27 29 22 31 23 14 12 24 19 13 8 8 7 13 11 16 11 13 11 8 13 9 10 10 12 15 16 18 17 16 18 23 16
28 25 29 32 29 27 21 26 24 9 18 26 27 32 29 23 21 26 28 20 20 7 3 5 11 13 14 17 6 3 3 12 12 11 13 12 16 21 22 14 18 18 28 25
27 26 24 19 17 16 13 19 14 8 23 26 34 27 30 23 28 23 19 17 12 9 16 6 1 4 10 5 11 13 18 17 18 19 17 23 27 29 30 26 28 28 28 37
22 14 11 12 14 12 11 10 4 22 39 37 26 24 19 13 27 24 14 12 3 10 11 10 7 2 6 6 12 17 26 23 26 28 22 25 23 26 30 28 24 24 27 34
24 21 21 15 14 11 16 21 32 42 41 38 26 13 16 25 18 17 11 4 4 3 6 12 10 11 14 13 16 9 15 24 26 25 20 26 25 30 27 27 27 31 45 35
15 15 12 21 31 25 25 45 50 37 25 24 18 15 22 18 13 6 7 9 4 7 5 6 16 20 10 9 18 21 26 26 18 33 33 32 39 37 24 29 39 43 34 36
Wind_Direction_850mb
289 294 298 293 297 309 271 220 143 294 33 4 30 61 43 44 29 41 59 53 18 357 4 50 89 116 128 137 156 175 185 191 196 194 116 73 321 352 331 38 236 297 254 240
262 267 277 290 302 311 347 357 33 54 327 190 20 82 52 39 68 50 128 194 353 315 281 22 348 240 175 158 162 163 173 190 212 222 228 286 231 322 151 187 257 263 268 285
272 328 339 350 337 30 115 96 99 161 201 85 28 66 91 37 13 145 158 146 181 253 266 266 282 235 222 179 176 176 180 192 202 224 244 175 99 106 147 236 254 309 32 210
256 336 300 256 122 65 7 77 229 206 155 136 154 181 215 203 174 160 161 181 205 234 277 279 240 231 194 164 157 158 157 160 189 244 222 192 150 142 170 178 158 153 151 175
222 251 264 289 27 27 44 41 21 49 58 140 189 249 271 253 241 226 223 211 220 220 247 235 217 222 208 160 149 149 146 153 157 146 146 153 146 139 136 136 140 146 190 230
242 237 241 33 355 352 331 54 9 39 23 350 355 351 322 325 275 237 229 222 240 237 212 188 195 193 162 145 149 144 144 142 145 146 156 155 150 148 142 139 132 72 90 359
214 168 78 346 18 3 64 307 344 8 45 23 28 345 344 346 301 283 291 250 234 234 196 184 184 170 156 150 142 141 151 151 141 133 128 117 123 110 98 96 89 74 63 55
28 47 283 4 39 63 268 323 342 358 354 3 348 354 352 357 318 280 320 314 241 224 186 180 175 164 149 143 135 131 142 137 130 119 114 112 95 79 71 61 61 56 55 57
47 169 80 66 70 36 8 349 338 337 342 341 343 350 347 359 347 322 284 288 301 321 189 186 162 155 148 141 142 139 136 134 132 138 123 101 88 85 85 78 71 58 49 17
75 32 74 68 44 19 352 330 337 347 336 328 334 346 348 342 341 332 329 289 277 263 168 160 156 155 148 140 138 138 136 130 118 113 107 110 104 81 62 67 358 308 282 34
123 35 44 26 21 2 345 345 346 339 325 325 339 349 11 7 8 7 330 282 288 166 159 151 150 141 136 134 144 139 121 117 107 90 110 114 94 64 59 56 46 51 66 61
74 40 41 356 347 350 351 339 333 329 326 324 339 354 27 25 43 23 3 304 183 157 148 144 148 142 146 141 120 111 122 118 117 102 123 106 101 76 54 32 25 29 68 72
35 14 359 349 354 344 338 335 338 352 347 345 360 7 46 27 11 2 44 53 129 156 142 141 142 140 128 120 129 122 127 113 126 122 120 89 105 110 74 11 340 305 323 37
19 2 348 339 334 338 343 342 342 349 358 29 23 32 322 342 1 48 77 61 101 120 129 131 123 110 115 124 135 125 119 131 116 116 114 85 124 78 125 24 14 15 3 354
8 349 343 344 347 344 338 344 351 351 349 335 320 310 294 248 355 88 121 118 122 157 141 126 110 103 98 113 115 121 106 115 116 56 218 129 324 330 321 337 336 308 328 337
357 343 345 346 338 334 344 343 345 356 356 351 324 289 243 190 54 129 126 126 128 123 123 122 114 120 110 115 114 106 104 126 186 347 25 209 282 311 310 310 326 325 329 306
334 338 339 333 338 2 359 348 340 354 355 78 260 247 194 186 168 132 124 118 123 124 127 122 106 103 116 95 123 101 31 330 299 284 294 272 279 294 275 286 280 303 295 299
331 334 329 333 349 354 342 336 329 329 337 315 270 241 231 194 144 129 124 128 124 116 118 117 94 77 114 86 82 61 0 1 354 11 326 293 286 295 281 274 282 282 281 284
321 318 337 327 336 336 342 349 336 330 330 315 133 167 220 151 130 132 137 136 137 139 146 154 157 132 114 112 121 307 309 342 325 335 335 328 315 292 292 289 302 303 292 291
326 326 323 315 333 334 346 344 335 337 307 226 181 168 163 140 139 140 138 134 138 145 102 94 159 187 176 165 210 1 338 331 322 325 332 335 343 336 317 318 335 317 299 316
321 328 335 348 338 327 323 318 322 345 266 177 157 156 157 152 151 141 144 136 168 176 157 184 156 208 214 185 348 270 285 10 6 346 330 331 8 347 360 346 345 354 349 327
321 316 317 318 315 309 308 312 322 333 206 195 158 173 168 164 181 170 157 145 133 165 170 225 211 192 193 227 315 283 307 302 306 333 336 318 321 329 316 311 311 301 318 319
316 313 312 309 298 300 301 291 318 283 191 179 178 185 177 175 145 140 152 164 171 154 157 152 192 224 265 289 237 273 348 4 345 331 324 321 308 308 315 286 275 300 306 300
310 307 307 306 304 302 277 274 318 203 173 166 148 149 155 156 166 169 163 146 181 193 174 195 245 327 325 325 201 251 284 318 337 9 333 298 298 314 300 301 303 292 295 296
343 347 340 319 329 319 281 285 256 167 148 149 141 164 176 124 171 169 173 168 131 144 210 250 226 287 359 315 306 302 299 291 293 303 315 318 309 311 303 292 296 299 300 295
58 63 35 22 56 79 85 114 150 146 142 148 153 169 136 135 151 173 173 148 226 247 240 260 262 294 293 316 327 300 354 316 301 315 295 309 305 293 314 298 282 296 316 280
36 50 34 53 109 111 107 97 110 132 122 123 142 142 169 180 195 198 210 250 241 309 309 306 293 271 347 338 297 285 307 311 291 298 291 295 311 297 298 305 299 304 300 300